CW3786 Weather Reports


time (UTC)temp
C
wind
direction
speed
KPH
gust
KPH
rain 1hr
cm
rain 24hr
cm
rain mn
cm
humidity
%
barometer
mb
20260508044053 15 229 0.0 0.0 0.00 0.00 0.00 81 1009.8
20260508043608 15 229 0.0 0.0 0.00 0.00 0.00 81 1009.8
20260508043122 15 229 0.0 0.0 0.00 0.00 0.00 80 1009.8
20260508042630 15 229 0.0 0.0 0.00 0.00 0.00 80 1009.6
20260508042108 15 229 0.0 0.0 0.00 0.00 0.00 80 1009.6
20260508041605 15 229 0.0 0.0 0.00 0.00 0.00 79 1009.6
20260508041101 15 229 0.0 0.0 0.00 0.00 0.00 79 1009.3
20260508040615 15 229 0.0 0.0 0.00 0.00 0.00 78 1009.3
20260508040109 15 229 0.0 0.0 0.00 0.00 0.00 77 1009.3
20260508035620 15 229 0.0 0.0 0.00 0.00 0.00 77 1009.3
20260508035200 15 229 0.0 0.0 0.00 0.00 0.00 77 1009.3
20260508034739 15 229 0.0 0.0 0.00 0.00 0.00 76 1009.3
20260508034136 15 229 0.0 0.0 0.00 0.00 0.00 76 1009.0
20260508033629 15 229 0.0 0.0 0.00 0.00 0.00 76 1009.0
20260508033104 15 229 0.0 0.0 0.00 0.00 0.00 76 1009.0
20260508032601 15 229 0.0 3.2 0.00 0.00 0.00 76 1008.8
20260508032056 15 229 0.0 3.2 0.00 0.00 0.00 77 1008.8
20260508031552 15 210 0.0 3.2 0.00 0.00 0.00 78 1008.8
20260508031107 15 210 0.0 3.2 0.00 0.00 0.00 79 1008.7
20260508030607 15 207 0.0 0.0 0.00 0.00 0.00 79 1008.7
20260508030103 15 207 0.0 0.0 0.00 0.00 0.00 79 1008.7
20260508025557 15 207 0.0 0.0 0.00 0.00 0.00 78 1008.6
20260508025052 16 207 0.0 0.0 0.00 0.00 0.00 78 1008.6
20260508024628 16 207 0.0 0.0 0.00 0.00 0.00 78 1008.6
20260508024059 16 205 0.0 1.6 0.00 0.00 0.00 77 1008.3
20260508023714 16 205 0.0 3.2 0.00 0.00 0.00 76 1008.3
20260508023059 16 210 0.0 3.2 0.00 0.00 0.00 75 1008.3
20260508022551 17 218 0.0 3.2 0.00 0.00 0.00 74 1008.2
20260508022106 17 219 0.0 3.2 0.00 0.00 0.00 72 1008.2
20260508021602 18 229 0.0 3.2 0.00 0.00 0.00 68 1008.2
20260508021057 18 266 0.0 4.8 0.00 0.00 0.00 66 1008.2
20260508020552 18 266 0.0 4.8 0.00 0.00 0.00 63 1008.2
20260508020107 18 259 0.0 3.2 0.00 0.00 0.00 62 1008.2
20260508015617 19 259 0.0 3.2 0.00 0.00 0.00 61 1008.2
20260508015108 20 259 0.0 4.8 0.00 0.00 0.00 60 1008.2
20260508014603 20 279 0.0 4.8 0.00 0.00 0.00 59 1008.2
20260508014058 20 314 0.0 0.0 0.00 0.00 0.00 60 1008.2
20260508013553 20 314 0.0 0.0 0.00 0.00 0.00 59 1008.2
20260508013109 20 314 0.0 3.2 0.00 0.00 0.00 59 1008.2
20260508012604 20 327 0.0 3.2 0.00 0.00 0.00 59 1008.1
20260508012103 20 215 1.6 3.2 0.00 0.00 0.00 58 1008.1
20260508011558 20 146 0.0 1.6 0.00 0.00 0.00 58 1008.1
20260508011051 20 229 0.0 1.6 0.00 0.00 0.00 58 1008.1
20260508010610 21 229 0.0 3.2 0.00 0.00 0.00 57 1008.1
20260508010122 21 229 1.6 3.2 0.00 0.00 0.00 55 1008.1
20260508005616 21 241 0.0 6.4 0.00 0.00 0.00 55 1008.1
20260508005105 21 242 1.6 6.4 0.00 0.00 0.00 55 1008.1
20260508004604 21 229 0.0 3.2 0.00 0.00 0.00 56 1008.1
20260508004059 22 229 0.0 6.4 0.00 0.00 0.00 55 1008.1
20260508003555 22 266 1.6 6.4 0.00 0.00 0.00 54 1008.1
20260508003054 22 258 0.0 3.2 0.00 0.00 0.00 54 1008.1
20260508002626 22 266 0.0 3.2 0.00 0.00 0.00 54 1008.1
20260508002104 22 267 0.0 4.8 0.00 0.00 0.00 54 1008.1
20260508001559 22 267 1.6 8.0 0.00 0.00 0.00 55 1008.1
20260508001114 22 168 3.2 8.0 0.00 0.00 0.00 55 1008.2
20260508000627 22 270 1.6 3.2 0.00 0.00 0.00 56 1008.2
20260508000153 22 269 0.0 0.0 0.00 0.00 0.00 58 1008.2
20260507235606 21 269 0.0 3.2 0.00 0.00 0.00 60 1008.2
20260507235049 21 259 0.0 3.2 0.00 0.00 0.00 62 1008.2
20260507234552 20 251 0.0 3.2 0.00 0.00 0.00 64 1008.2
20260507234051 20 241 0.0 4.8 0.00 0.00 0.00 63 1008.2
20260507233605 21 242 0.0 4.8 0.00 0.00 0.00 62 1008.2
20260507233104 21 196 1.6 4.8 0.00 0.00 0.00 61 1008.2
20260507232600 21 225 1.6 6.4 0.00 0.00 0.00 60 1008.2
20260507232054 22 246 0.0 8.0 0.00 0.00 0.00 60 1008.2
20260507231549 22 263 1.6 8.0 0.00 0.00 0.00 59 1008.2
20260507231107 22 254 1.6 8.0 0.00 0.00 0.00 59 1008.2
20260507230601 22 182 0.0 6.4 0.00 0.00 0.00 59 1008.2
20260507230153 22 162 0.0 3.2 0.00 0.00 0.00 59 1008.2
20260507225610 22 148 0.0 6.4 0.00 0.00 0.00 59 1008.2
20260507225115 22 310 1.6 6.4 0.00 0.00 0.00 60 1008.2
20260507224608 22 246 0.0 6.4 0.00 0.00 0.00 61 1008.2
20260507224129 21 242 1.6 8.0 0.00 0.00 0.00 61 1008.4
20260507223616 21 265 1.6 8.0 0.00 0.00 0.00 62 1008.4
20260507223050 21 213 1.6 6.4 0.00 0.00 0.00 62 1008.3
20260507222606 21 300 0.0 8.0 0.00 0.00 0.00 64 1008.6
20260507222100 21 240 1.6 9.7 0.00 0.00 0.00 63 1008.6
20260507221556 21 190 0.0 9.7 0.00 0.00 0.00 62 1008.6
20260507221051 21 259 3.2 8.0 0.00 0.00 0.00 60 1008.7
20260507220606 22 225 0.0 8.0 0.00 0.00 0.00 59 1008.7
20260507220101 22 240 0.0 6.4 0.00 0.00 0.00 60 1008.7
20260507215600 22 223 1.6 8.0 0.00 0.00 0.00 59 1008.7
20260507215056 22 218 0.0 8.0 0.00 0.00 0.00 60 1008.8
20260507214629 23 217 1.6 8.0 0.00 0.00 0.00 57 1008.8
20260507214132 23 191 0.0 8.0 0.00 0.00 0.00 55 1008.8
20260507213614 24 212 0.0 8.0 0.00 0.00 0.00 55 1008.8
20260507213121 23 208 0.0 4.8 0.00 0.00 0.00 56 1008.8
20260507212613 23 180 0.0 3.2 0.00 0.00 0.00 57 1008.8
20260507212126 23 180 0.0 3.2 0.00 0.00 0.00 59 1008.8
20260507211620 23 178 0.0 3.2 0.00 0.00 0.00 59 1008.8
20260507211115 22 178 0.0 4.8 0.00 0.00 0.00 59 1009.2
20260507210601 23 178 0.0 4.8 0.00 0.00 0.00 57 1009.2
20260507210208 23 178 0.0 8.0 0.00 0.00 0.00 57 1009.2
20260507205610 23 178 0.0 8.0 0.00 0.00 0.00 55 1009.2
20260507205051 24 177 0.0 6.4 0.00 0.00 0.00 54 1009.2
20260507204623 25 177 1.6 6.4 0.00 0.00 0.00 53 1009.2
20260507204104 25 178 0.0 8.0 0.00 0.00 0.00 53 1009.3
20260507203559 25 178 0.0 9.7 0.00 0.00 0.00 53 1009.3
20260507203054 26 61 0.0 3.2 0.00 0.00 0.00 51 1009.3
20260507202610 26 55 0.0 8.0 0.00 0.00 0.00 52 1009.3
20260507202104 25 58 3.2 8.0 0.00 0.00 0.00 53 1009.3
20260507201559 25 123 0.0 1.6 0.00 0.00 0.00 51 1009.3
20260507201054 25 123 0.0 1.6 0.00 0.00 0.00 50 1009.5
20260507200609 25 123 0.0 8.0 0.00 0.00 0.00 50 1009.5
20260507200212 26 123 1.6 8.0 0.00 0.00 0.00 49 1009.5
20260507195555 26 105 0.0 6.4 0.00 0.00 0.00 49 1009.8
20260507195109 26 132 0.0 8.0 0.00 0.00 0.00 49 1009.8
20260507194603 26 68 0.0 4.8 0.00 0.00 0.00 50 1009.8
20260507194147 26 68 0.0 4.8 0.00 0.00 0.00 50 1009.8
20260507193558 26 69 0.0 1.6 0.00 0.00 0.00 51 1009.8
20260507193112 25 67 0.0 3.2 0.00 0.00 0.00 54 1009.8
20260507192606 25 67 0.0 3.2 0.00 0.00 0.00 53 1010.0
20260507192122 25 79 0.0 8.0 0.00 0.00 0.00 52 1010.0
20260507191554 25 81 3.2 8.0 0.00 0.00 0.00 53 1010.0
20260507191108 25 67 0.0 8.0 0.00 0.00 0.00 51 1010.1
20260507190603 25 65 0.0 9.7 0.00 0.00 0.00 52 1010.1
20260507190118 25 74 3.2 9.7 0.00 0.00 0.00 53 1010.1
20260507185550 25 69 1.6 9.7 0.00 0.00 0.00 53 1010.3
20260507185105 25 69 3.2 9.7 0.00 0.00 0.00 53 1010.3
20260507184559 25 62 1.6 8.0 0.00 0.00 0.00 52 1010.3
20260507184130 24 64 0.0 8.0 0.00 0.00 0.00 54 1010.3
20260507183610 24 79 0.0 11.3 0.00 0.00 0.00 55 1010.3
20260507183050 24 71 0.0 9.7 0.00 0.00 0.00 53 1010.3
20260507182624 24 84 1.6 8.0 0.00 0.00 0.00 55 1010.3
20260507182126 23 82 1.6 9.7 0.00 0.00 0.00 55 1010.3
20260507181600 23 86 4.8 9.7 0.00 0.00 0.00 57 1010.3
20260507181055 23 51 0.0 8.0 0.00 0.00 0.00 57 1010.3
20260507180553 23 51 3.2 8.0 0.00 0.00 0.00 59 1010.3
20260507180051 23 71 0.0 0.0 0.00 0.00 0.00 58 1010.3
20260507175606 22 82 0.0 9.7 0.00 0.00 0.00 57 1010.3
20260507175102 22 81 1.6 9.7 0.00 0.00 0.00 60 1010.3
20260507174558 22 49 0.0 4.8 0.00 0.00 0.00 60 1010.3
20260507174053 22 40 0.0 4.8 0.00 0.00 0.00 61 1010.4
20260507173608 22 17 0.0 4.8 0.00 0.00 0.00 62 1010.4
20260507173103 22 30 0.0 8.0 0.00 0.00 0.00 60 1010.4
20260507172557 22 32 0.0 8.0 0.00 0.00 0.00 62 1010.4
20260507172122 21 49 0.0 3.2 0.00 0.00 0.00 61 1010.4
20260507171559 21 50 0.0 3.2 0.00 0.00 0.00 60 1010.4
20260507171054 21 53 0.0 6.4 0.00 0.00 0.00 62 1010.4
20260507170608 21 53 0.0 6.4 0.00 0.00 0.00 64 1010.4
20260507165558 21 70 0.0 3.2 0.00 0.00 0.00 62 1010.5
20260507165052 20 70 0.0 6.4 0.00 0.00 0.00 64 1010.5
20260507164555 20 69 0.0 6.4 0.00 0.00 0.00 64 1010.5
20260507164146 20 85 0.0 6.4 0.00 0.00 0.00 63 1010.7
20260507163617 20 84 1.6 6.4 0.00 0.00 0.00 63 1010.7
20260507163053 20 85 0.0 9.7 0.00 0.00 0.00 64 1010.7
20260507162651 20 86 1.6 9.7 0.00 0.00 0.00 66 1010.7
20260507162051 20 34 0.0 1.6 0.00 0.00 0.00 66 1010.7
20260507161550 19 34 0.0 3.2 0.00 0.00 0.00 67 1010.7
20260507161105 19 109 0.0 3.2 0.00 0.00 0.00 69 1010.8
20260507160601 18 63 0.0 8.0 0.00 0.00 0.00 68 1010.8
20260507160117 18 64 0.0 8.0 0.00 0.00 0.00 70 1010.8
20260507155551 18 62 0.0 0.0 0.00 0.00 0.00 71 1010.8
20260507155107 18 62 0.0 4.8 0.00 0.00 0.00 73 1010.8
20260507154602 17 62 0.0 4.8 0.00 0.00 0.00 74 1010.8
20260507154118 17 90 0.0 4.8 0.00 0.00 0.00 76 1010.7
20260507153557 17 81 0.0 0.0 0.00 0.00 0.00 77 1010.7
20260507153052 16 81 0.0 4.8 0.00 0.00 0.00 78 1010.7
20260507152717 16 81 0.0 4.8 0.00 0.00 0.00 80 1010.9
20260507152123 16 81 0.0 0.0 0.00 0.00 0.00 82 1010.9
20260507151556 16 81 0.0 0.0 0.00 0.00 0.00 82 1010.9
20260507151052 15 81 0.0 0.0 0.00 0.00 0.00 84 1010.9
20260507150607 15 81 0.0 0.0 0.00 0.00 0.00 85 1010.9
20260507150046 15 81 0.0 1.6 0.00 0.00 0.00 87 1010.9
20260507145619 15 277 0.0 1.6 0.00 0.00 0.00 88 1010.8
20260507145057 14 277 0.0 0.0 0.00 0.00 0.00 89 1010.8
20260507144608 14 277 0.0 0.0 0.00 0.00 0.00 90 1010.8
20260507144110 14 277 0.0 1.6 0.00 0.00 0.00 90 1010.7
20260507143603 13 277 0.0 1.6 0.00 0.00 0.00 91 1010.7
20260507143058 13 277 0.0 0.0 0.00 0.00 0.00 91 1010.7
20260507142554 13 277 0.0 0.0 0.00 0.00 0.00 91 1010.4
20260507142108 13 277 0.0 0.0 0.00 0.00 0.00 91 1010.4
20260507141604 13 277 0.0 0.0 0.00 0.00 0.00 92 1010.4
20260507141058 12 277 0.0 0.0 0.00 0.00 0.00 92 1010.4
20260507140553 12 277 0.0 0.0 0.00 0.00 0.00 91 1010.4
20260507140128 12 277 0.0 0.0 0.00 0.00 0.00 91 1010.4
20260507135603 12 277 0.0 0.0 0.00 0.00 0.00 91 1010.3
20260507135133 12 277 0.0 0.0 0.00 0.00 0.00 91 1010.3
20260507134631 12 277 0.0 0.0 0.00 0.00 0.00 91 1010.3
20260507134121 12 277 0.0 0.0 0.00 0.00 0.00 91 1010.2
20260507133557 12 277 0.0 0.0 0.00 0.00 0.00 91 1010.2
20260507133056 12 277 0.0 0.0 0.00 0.00 0.00 91 1010.2
20260507132552 11 277 0.0 0.0 0.00 0.00 0.00 90 1010.1
20260507132107 11 277 0.0 0.0 0.00 0.00 0.00 90 1010.1
20260507131603 11 277 0.0 0.0 0.00 0.00 0.00 90 1010.1
20260507131059 11 277 0.0 0.0 0.00 0.00 0.00 90 1010.0
20260507130611 11 277 0.0 0.0 0.00 0.00 0.00 90 1010.0
20260507130058 11 277 0.0 0.0 0.00 0.00 0.00 90 1010.0
20260507125721 11 277 0.0 0.0 0.00 0.00 0.00 90 1009.8
20260507125059 11 277 0.0 0.0 0.00 0.00 0.00 90 1009.8
20260507124615 11 277 0.0 0.0 0.00 0.00 0.00 89 1009.8
20260507124109 11 277 0.0 0.0 0.00 0.00 0.00 89 1009.9
20260507123601 12 277 0.0 0.0 0.00 0.00 0.00 89 1009.9
20260507123211 12 277 0.0 0.0 0.00 0.00 0.00 89 1009.9
20260507122615 12 277 0.0 0.0 0.00 0.00 0.00 89 1009.8
20260507122059 12 277 0.0 0.0 0.00 0.00 0.00 89 1009.8
20260507121554 12 277 0.0 0.0 0.00 0.00 0.00 89 1009.8
20260507121128 12 277 0.0 0.0 0.00 0.00 0.00 89 1009.9
20260507120601 12 277 0.0 0.0 0.00 0.00 0.00 89 1009.9
20260507120117 12 277 0.0 0.0 0.00 0.00 0.00 89 1009.9
20260507115610 12 277 0.0 0.0 0.00 0.00 0.00 89 1010.0
20260507115125 12 277 0.0 0.0 0.00 0.00 0.00 89 1010.0
20260507114558 12 277 0.0 0.0 0.00 0.00 0.00 88 1010.0
20260507114112 12 277 0.0 0.0 0.00 0.00 0.00 88 1009.9
20260507113602 12 277 0.0 0.0 0.00 0.00 0.00 88 1009.9
20260507113145 12 277 0.0 0.0 0.00 0.00 0.00 88 1009.9
20260507112610 12 277 0.0 0.0 0.00 0.00 0.00 88 1009.9
20260507112116 12 277 0.0 0.0 0.00 0.00 0.00 88 1009.9
20260507111550 12 277 0.0 0.0 0.00 0.00 0.00 88 1009.9
20260507111125 12 277 0.0 0.0 0.00 0.00 0.00 88 1010.2
20260507110558 12 277 0.0 0.0 0.00 0.00 0.00 88 1010.2
20260507110112 12 277 0.0 0.0 0.00 0.00 0.00 87 1010.2
20260507105600 12 277 0.0 0.0 0.00 0.00 0.00 87 1010.3
20260507105056 12 277 0.0 0.0 0.00 0.00 0.00 87 1010.3
20260507104610 12 277 0.0 0.0 0.00 0.00 0.00 87 1010.3
20260507104207 12 277 0.0 0.0 0.00 0.00 0.00 87 1010.3
20260507103553 12 277 0.0 0.0 0.00 0.00 0.00 87 1010.3
20260507103128 12 277 0.0 0.0 0.00 0.00 0.00 87 1010.3
20260507102623 12 277 0.0 0.0 0.00 0.00 0.00 86 1010.3
20260507102057 12 277 0.0 0.0 0.00 0.00 0.00 86 1010.3
20260507101552 12 277 0.0 0.0 0.00 0.00 0.00 86 1010.3
20260507101051 12 277 0.0 0.0 0.00 0.00 0.00 86 1010.4
20260507100605 12 277 0.0 0.0 0.00 0.00 0.00 86 1010.4
20260507100104 12 277 0.0 0.0 0.00 0.00 0.00 86 1010.4
20260507095557 12 277 0.0 0.0 0.00 0.00 0.00 86 1010.4
20260507095117 12 277 0.0 0.0 0.00 0.00 0.00 86 1010.4
20260507094616 12 277 0.0 0.0 0.00 0.00 0.00 85 1010.4
20260507094110 12 277 0.0 0.0 0.00 0.00 0.00 85 1010.6
20260507093604 12 277 0.0 0.0 0.00 0.00 0.00 85 1010.6
20260507093057 12 277 0.0 0.0 0.00 0.00 0.00 85 1010.6
20260507092551 12 277 0.0 0.0 0.00 0.00 0.00 85 1010.8
20260507092121 12 277 0.0 0.0 0.00 0.00 0.00 85 1010.8
20260507091600 12 277 0.0 0.0 0.00 0.00 0.00 85 1010.8
20260507091055 12 277 0.0 0.0 0.00 0.00 0.00 85 1010.9
20260507090549 12 277 0.0 0.0 0.00 0.00 0.00 85 1010.9
20260507090108 12 277 0.0 0.0 0.00 0.00 0.00 85 1010.9
20260507085602 12 277 0.0 0.0 0.00 0.00 0.00 84 1010.9
20260507085057 12 277 0.0 0.0 0.00 0.00 0.00 84 1010.9
20260507084551 12 277 0.0 0.0 0.00 0.00 0.00 84 1010.9
20260507084106 12 277 0.0 0.0 0.00 0.00 0.00 84 1011.0
20260507083602 13 277 0.0 0.0 0.00 0.00 0.00 83 1011.0
20260507083055 13 277 0.0 0.0 0.00 0.00 0.00 83 1011.0
20260507082553 13 277 0.0 0.0 0.00 0.00 0.00 82 1011.1
20260507082153 13 277 0.0 0.0 0.00 0.00 0.00 82 1011.1
20260507081618 13 277 0.0 0.0 0.00 0.00 0.00 81 1011.1
20260507081118 13 277 0.0 0.0 0.00 0.00 0.00 81 1011.2
20260507080612 13 277 0.0 0.0 0.00 0.00 0.00 81 1011.2
20260507080108 13 277 0.0 0.0 0.00 0.00 0.00 80 1011.2
20260507075607 13 277 0.0 0.0 0.00 0.00 0.00 80 1011.2
20260507075103 13 277 0.0 0.0 0.00 0.00 0.00 80 1011.2
20260507074558 13 277 0.0 0.0 0.00 0.00 0.00 80 1011.2
20260507074053 13 277 0.0 0.0 0.00 0.00 0.00 80 1011.3
20260507073612 14 277 0.0 6.4 0.00 0.00 0.00 80 1011.3
20260507073106 14 277 1.6 6.4 0.00 0.00 0.00 80 1011.3
20260507072619 14 276 0.0 11.3 0.00 0.00 0.00 80 1011.4
20260507072057 14 274 0.0 16.1 0.00 0.00 0.00 80 1011.4
20260507071611 14 251 3.2 16.1 0.00 0.00 0.00 80 1011.4
20260507071117 14 267 0.0 9.7 0.00 0.00 0.00 80 1011.4
20260507070618 14 256 1.6 16.1 0.00 0.00 0.00 81 1011.4
20260507070111 14 258 1.6 16.1 0.00 0.00 0.00 81 1011.4
20260507065603 14 247 3.2 9.7 0.00 0.00 0.00 82 1011.3
20260507065105 14 284 1.6 9.7 0.00 0.00 0.00 83 1011.3
20260507064601 14 237 1.6 9.7 0.00 0.00 0.00 83 1011.3
20260507064055 14 277 0.0 9.7 0.00 0.00 0.00 84 1011.4
20260507063631 14 269 1.6 9.7 0.00 0.00 0.00 84 1011.4
20260507063125 14 283 1.6 11.3 0.00 0.00 0.00 85 1011.4
20260507062638 13 208 0.0 11.3 0.00 0.00 0.00 85 1011.4
20260507062117 13 256 1.6 4.8 0.00 0.00 0.00 86 1011.4
20260507061559 13 255 0.0 3.2 0.00 0.00 0.00 86 1011.4
20260507061102 13 255 0.0 6.4 0.00 0.00 0.00 86 1011.4
20260507060557 13 255 0.0 6.4 0.00 0.00 0.00 87 1011.4
20260507060052 13 235 0.0 6.4 0.00 0.00 0.00 87 1011.4
20260507055607 13 248 0.0 1.6 0.00 0.00 0.00 87 1011.4
20260507055103 13 248 0.0 1.6 0.00 0.00 0.00 86 1011.4
20260507054557 13 272 0.0 6.4 0.00 0.00 0.00 86 1011.4
20260507054056 13 272 1.6 6.4 0.00 0.00 0.00 86 1011.6
20260507053554 13 267 0.0 3.2 0.00 0.00 0.00 85 1011.6
20260507053108 13 267 0.0 3.2 0.00 0.00 0.00 85 1011.6
20260507052556 13 267 0.0 3.2 0.00 0.00 0.00 84 1011.6
20260507052102 13 267 0.0 3.2 0.00 0.00 0.00 84 1011.6
20260507051605 13 267 0.0 3.2 0.00 0.00 0.00 84 1011.6
20260507051101 13 267 0.0 0.0 0.00 0.00 0.00 83 1011.5
20260507050555 13 267 0.0 1.6 0.00 0.00 0.00 81 1011.5
20260507050051 13 267 0.0 1.6 0.00 0.00 0.00 81 1011.5
20260507045603 13 267 0.0 0.0 0.00 0.00 0.00 80 1011.4
20260507045058 14 267 0.0 0.0 0.00 0.00 0.00 80 1011.4
20260507044554 14 267 0.0 0.0 0.00 0.00 0.00 80 1011.4